User: anonymous   Login
Location: Unspecified
(0.0000°N, 0.0000°E)
Time: 02:19:09
(UTC+00:00)
Language:

Tiros 10 - Orbit

View from above orbital plane
View from above orbital plane
View from above satellite
View from above satellite

Ground track
Ground track

The orbit data is extracted from the following two-line orbital elements,

1 01430U 65051A   16121.46695943  .00000055  00000-0  29818-4 0  9994
2 01430  98.0948 290.9850 0057726  65.5134 295.2061 14.40141411663700
Epoch (UTC): 30 April 2016 11:12:25
Eccentricity: 0.0057726
inclination: 98.0948°
perigee height: 717 km
apogee height: 799 km
right ascension of ascending node: 290.9850°
argument of perigee: 65.5134°
revolutions per day: 14.40141411
mean anomaly at epoch: 295.2061°
orbit number at epoch: 66370

The dashed part of the orbit path shows where the satellite is in the earth's shadow,  

DLR